Reflectivity
-20 -20 -20 -20 -20 -20 -20 -20 -20 -20 -20 -20 -20 -20 -20 -20 -20 -20 -20 -20 -20 -20 -20 -20 -20 -20 -20 -20 -20 -20 -20 -20 -20 -20 -20 -20 -20 -20 -20 -20 -20 -20 -20 -20
-20 -20 -20 -20 -20 -20 -20 -20 -20 -20 -20 -20 -20 -20 -20 -20 -20 -20 -20 -20 -20 -20 -20 -20 -20 -20 -20 -20 -20 -20 -20 -20 -20 -20 -20 -20 -20 -20 -20 -20 -20 -20 -20 -20
-20 -20 -20 -20 -20 -20 -20 -20 -20 -20 -20 -20 -20 -20 -20 -20 -20 -20 -20 -20 -20 -20 -20 -20 -20 -20 -20 -20 -20 -20 -20 -20 -20 -20 -20 -20 -20 -20 -20 -20 -20 -20 -20 -20
-20 -20 -20 -20 -20 -20 -20 -20 -20 -20 -20 -20 -20 -20 -20 -20 -20 -20 -20 -20 -20 -20 -20 -20 -20 -20 -20 -20 -20 -20 -20 -20 -20 -20 -20 -20 -20 -20 -20 -20 -20 -20 -20 -20
-20 -20 -20 -20 -20 -20 -20 -20 -20 -20 -20 -20 -20 -20 -20 -20 -20 -20 -20 -20 -20 -20 -20 -20 -20 -20 -20 -20 -20 -20 -20 -20 -20 -20 -20 -20 -20 -20 -20 -20 -20 -20 -20 -20
-20 -20 -20 -20 -20 -20 -20 -20 -20 -20 -20 -20 -20 -20 -20 -20 -20 -20 -20 -20 -20 -20 -20 -20 -20 -20 -20 -20 -20 -20 -20 -20 -20 -20 -20 -20 -20 -20 -20 -20 -20 -20 -20 -20
-20 -20 -20 -20 -20 -20 -20 -20 -20 -20 -20 -20 -20 -20 -20 -20 -20 -20 -20 -20 -20 -20 -20 -20 -20 -20 -20 -20 -20 -20 -20 -20 -20 -20 -20 -20 -20 -20 -20 -20 -20 -20 -20 -20
-20 -20 -20 -20 -20 -20 -20 -20 -20 -20 -20 -20 -20 -20 -20 -20 -20 -20 -20 -20 -20 -20 -20 -20 -20 -20 -20 -20 -20 -20 -20 -20 -20 -20 -20 -20 -20 -20 -20 -20 -20 -20 -20 -20
-20 -20 -20 -20 -20 -20 -20 -20 -20 -20 -20 -20 -20 -20 -20 -20 -20 -20 -20 -20 -20 -20 -20 -20 -20 -20 -20 -20 -20 -20 -20 -20 -20 -20 -20 -20 -20 -20 -20 -20 -20 -20 -20 -20
-20 -20 -20 -20 -20 -20 -20 -20 -20 -20 -20 -20 -20 -20 -20 -20 -20 -20 -20 -20 -20 -20 -20 -20 -20 -20 -20 -20 -20 -18 -12 -2 -20 -20 -20 -20 -20 -20 -19 -8 -20 -13 -20 -20
-20 -20 -20 -20 -20 -20 -20 -20 -20 -20 -20 -20 -20 -20 -20 -20 -20 -20 -20 -20 -20 -20 -20 -20 -20 -20 -20 -20 -20 -20 -18 -20 -20 -20 -20 -20 -20 -20 -16 -15 -13 -20 -20 -20
-20 -20 -20 -20 -20 -20 -20 -20 -20 -20 -20 -20 -20 -20 -20 -20 -20 -20 -20 -20 -20 -20 -20 -20 -20 -20 -20 -2 28 2 -3 9 8 0 12 7 2 -11 -20 -19 -20 -20 -20 -20
-20 -20 -20 -20 -20 -20 -20 -20 -20 -20 -20 -18 6 -17 -20 -20 -20 -20 -20 -20 -20 -20 -20 -20 -20 -20 -11 18 21 -2 10 18 17 20 19 15 15 17 7 10 13 3 -12 -16
-20 -20 -20 -20 -20 -20 -20 -20 -20 -5 16 15 -13 -20 -20 -19 1 -10 -20 -20 -19 -3 -20 -9 -8 14 15 11 15 12 5 12 10 12 16 16 12 9 10 -8 -4 3 -17 -19
0 10 -20 -20 -20 -20 -20 -20 -20 -20 -18 21 9 -18 -20 -19 -20 -20 -20 -20 -20 -20 -1 10 17 -4 5 9 10 -14 -5 6 11 14 15 15 12 9 6 4 4 3 -20 -20
-5 18 -5 -20 -20 -20 -14 -20 -20 -20 -20 -20 -13 -20 -20 -20 -20 -20 -20 -20 -20 -6 16 17 16 0 8 10 5 11 13 16 16 14 10 9 9 -6 -12 -4 -4 -7 -20 -20
18 30 24 13 -12 -0 14 5 -20 -20 -20 -20 -20 -20 -20 -20 -20 -20 -20 -15 -3 14 17 13 5 6 5 7 7 8 9 10 10 5 -9 -14 -18 -20 -20 -20 -20 -20 -20 -20
9 27 33 21 16 17 -8 -20 -20 -20 -20 -20 -20 -20 -20 -20 -18 -17 0 6 14 11 15 14 8 6 5 6 9 11 5 -8 -14 -20 -20 -20 -20 -20 -20 -20 -20 -20 -20 -20
-3 22 31 22 14 13 -13 -20 -20 -20 -20 -20 -20 -20 -18 -16 -15 2 -5 2 10 13 17 20 19 16 13 11 -6 -11 -14 -20 -19 -19 -15 -18 -20 -20 -20 -20 -20 -20 -20 -20
-16 2 14 23 20 12 -11 -12 -15 -18 -20 -17 -11 15 15 21 24 17 24 21 20 19 19 18 16 15 10 -9 -19 -17 -7 -5 -13 -20 -20 -20 -20 -20 -20 -20 -20 -20 -20 -20
15 28 20 17 19 28 31 27 26 17 13 23 19 10 12 15 15 16 17 17 17 17 16 12 10 10 6 -4 -20 -20 -20 -20 -20 -20 -20 -20 -20 -20 -20 -20 -20 -20 -20 -20
9 11 17 25 23 23 24 21 15 17 16 13 11 4 8 10 7 5 10 14 16 15 12 6 4 1 -11 -20 -20 -20 -20 -20 -20 -20 -20 -20 -20 -20 -20 -20 -20 -20 -20 -20
13 12 8 16 19 9 12 17 19 20 19 18 19 17 14 8 5 5 8 6 -11 -18 -19 -20 -20 -20 -20 -20 -20 -20 -20 -20 -20 -20 -20 -20 -20 -20 -20 -20 -20 -20 -20 -20
15 15 23 21 18 16 11 10 9 12 14 14 13 16 15 13 -0 -10 -14 -20 -20 -20 -20 -20 -20 -20 -20 -20 -20 -20 -20 -20 -20 -20 -20 -20 -20 -20 -20 -20 -20 -20 -20 -20
7 -7 -5 -4 -10 6 8 1 1 8 8 8 10 10 8 8 5 -7 -18 -20 -20 -20 -20 -20 -20 -20 -20 -20 -20 -20 -20 -20 -20 -20 -20 -20 -20 -20 -20 -20 -20 -20 -20 -20
10 11 13 12 -3 -4 4 7 11 10 8 5 0 -6 -18 -20 -20 -20 -20 -20 -20 -20 -20 -20 -20 -20 -20 -20 -20 -20 -20 -20 -20 -20 -20 -20 -20 -20 -20 -20 -20 -20 -17 3
Wind_Speed
2 2 7 8 7 2 2 2 5 5 3 3 7 11 20 14 8 11 9 9 9 11 5 8 8 9 9 7 8 8 8 7 6 3 3 2 2 2 3 3 5 5 5 5
4 7 4 3 4 2 2 2 6 6 2 3 7 12 18 21 9 7 5 8 9 7 8 8 10 10 11 10 9 8 7 8 6 4 2 2 3 2 2 1 3 5 5 5
6 2 4 3 3 3 3 5 4 6 5 2 7 9 7 5 3 4 4 4 6 11 11 8 10 10 8 11 10 9 7 7 6 6 4 3 4 3 1 1 2 3 4 5
6 1 4 3 4 7 3 5 3 1 3 4 4 10 7 8 10 6 6 4 5 7 7 7 10 10 12 8 7 7 7 7 5 6 4 5 4 4 3 3 2 2 4 5
7 6 5 5 7 8 6 2 2 1 2 3 2 0 11 3 7 5 6 1 2 5 8 9 10 9 6 8 8 7 8 6 5 6 5 5 3 2 2 3 5 3 3 5
7 1 5 7 2 4 5 3 4 4 3 2 5 7 6 4 3 5 5 5 6 4 5 6 6 9 7 7 7 6 7 6 5 4 5 6 7 5 4 3 3 2 2 2
2 5 2 3 4 1 3 5 4 5 2 7 4 2 10 4 3 3 4 7 7 7 6 6 7 7 7 8 8 7 8 7 6 4 3 3 4 5 6 4 3 4 2 0
4 8 8 5 6 8 6 8 7 7 5 5 2 9 8 3 5 6 7 7 8 9 7 8 6 5 6 6 6 7 6 5 5 5 3 2 3 2 2 4 3 3 3 2
6 8 2 3 2 3 5 5 2 1 2 2 6 8 5 4 4 5 6 7 7 7 8 9 10 10 7 6 5 5 6 4 5 5 4 3 3 4 4 4 3 3 3 2
3 6 2 2 2 2 3 3 4 2 4 7 7 7 9 8 8 6 5 6 5 6 8 9 9 10 9 10 7 9 6 6 5 6 4 4 4 4 4 4 4 4 3 2
4 5 3 4 7 10 2 2 2 2 5 5 5 9 6 7 9 10 7 6 5 5 7 8 9 9 9 11 10 10 9 9 8 6 5 5 4 4 4 4 4 4 4 3
7 5 6 13 3 2 4 9 10 7 7 5 3 20 3 2 5 10 9 8 6 7 7 8 9 8 9 9 9 9 9 9 8 7 6 5 4 3 4 3 2 3 4 4
7 4 5 9 2 3 5 5 5 2 2 19 8 11 2 5 6 7 12 10 10 9 8 6 7 8 8 9 6 8 7 7 6 6 4 4 3 3 3 2 2 3 4 2
7 7 9 18 12 4 5 7 8 12 9 8 21 22 8 8 10 9 10 10 10 9 10 8 7 6 7 6 6 6 8 7 6 5 3 4 3 3 3 1 2 2 4 3
8 19 10 19 20 15 18 19 12 16 16 13 21 18 21 14 18 17 13 13 13 10 8 7 7 6 5 6 6 6 7 6 5 3 3 4 4 3 3 3 3 2 4 2
5 15 9 20 13 13 19 26 22 24 26 22 25 32 19 5 10 12 13 13 11 10 8 7 6 6 6 5 5 5 5 5 4 5 6 6 6 5 5 5 4 4 3 2
6 6 6 17 15 16 19 27 27 23 19 20 23 29 8 6 10 11 12 11 11 9 7 6 6 5 5 5 5 4 3 3 4 5 5 5 5 5 6 6 5 5 5 4
12 12 5 10 10 18 10 3 2 16 9 3 4 5 7 12 12 12 10 12 10 8 8 6 4 4 4 4 3 2 2 2 3 4 4 4 4 5 4 4 4 4 4 5
20 18 10 11 17 17 4 6 5 1 2 7 4 10 13 14 13 10 9 10 10 7 5 5 3 2 3 4 3 3 3 3 3 3 4 5 4 4 4 5 5 5 4 4
14 22 17 14 17 21 7 6 13 5 2 13 6 6 9 3 2 3 6 7 8 7 5 5 3 2 3 4 4 3 3 2 2 5 5 5 5 5 5 5 5 4 3 7
5 6 17 20 15 6 8 16 12 2 4 9 11 8 7 5 4 8 8 8 6 5 4 4 4 2 2 2 2 3 2 3 3 6 5 5 5 5 6 5 3 4 5 7
4 7 6 8 7 4 21 6 8 1 7 8 9 8 11 9 7 7 7 7 5 4 4 5 4 4 3 3 3 4 4 3 5 5 5 6 5 7 7 6 5 6 5 5
4 4 5 5 4 4 8 8 9 9 5 7 9 11 8 7 7 6 6 5 4 4 5 4 4 4 4 5 4 4 4 5 5 4 6 6 6 8 7 8 7 5 4 5
10 16 5 3 6 7 11 8 9 9 9 8 9 8 9 7 6 5 4 5 5 4 5 3 4 4 7 5 6 4 6 5 5 6 6 6 5 7 4 4 5 5 3 5
5 9 8 3 5 4 8 9 8 8 9 8 7 6 7 8 8 7 7 7 6 6 5 4 5 7 7 5 6 6 7 5 6 7 6 5 6 6 6 6 4 6 7 8
9 6 5 3 9 4 4 8 12 9 10 10 10 11 9 8 8 8 7 6 6 7 6 7 7 8 8 6 7 7 6 6 6 6 5 4 5 4 5 5 6 14 18 20
Wind_Direction
8 74 222 221 202 171 149 197 250 253 267 269 232 268 283 285 229 254 247 225 209 207 174 158 166 153 145 149 152 160 154 156 140 132 122 117 109 67 46 42 41 42 51 54
18 237 220 117 141 142 150 246 262 282 280 195 305 276 276 282 264 233 235 226 206 165 167 167 161 159 168 164 165 164 165 161 162 146 142 134 142 112 112 66 50 43 51 49
185 243 117 134 155 182 218 197 229 236 333 267 323 282 307 295 272 273 242 227 197 187 177 169 167 171 159 171 173 169 165 165 165 153 112 82 79 76 100 60 56 31 63 65
231 259 172 178 230 154 269 206 170 252 39 255 5 288 304 291 300 272 270 211 211 181 165 153 163 169 181 172 148 149 154 162 168 158 156 157 167 164 191 151 139 93 61 69
254 168 184 196 218 163 223 105 137 95 152 11 280 146 268 310 304 343 344 300 169 186 172 168 176 170 158 146 157 152 149 157 156 170 174 168 156 140 137 124 135 110 65 59
245 302 188 211 127 166 134 96 60 60 99 316 216 166 274 231 227 312 2 62 55 86 100 105 112 125 135 138 141 146 146 151 154 168 181 184 185 171 149 146 149 126 76 54
282 222 225 166 124 48 124 70 320 329 3 229 147 180 242 239 321 288 328 68 45 48 72 102 121 135 142 152 152 154 153 151 146 157 178 195 195 177 171 156 155 151 134 175
204 310 181 178 200 183 178 169 167 243 226 260 127 240 249 131 86 74 66 74 54 43 39 47 58 106 121 121 126 125 140 130 138 127 113 102 128 139 145 156 155 161 173 184
176 265 153 189 150 148 179 185 198 152 115 355 226 285 277 140 111 86 78 67 56 49 47 51 48 45 58 88 103 127 132 125 124 116 111 94 97 117 133 132 131 146 132 147
220 292 193 140 114 41 163 166 79 9 245 245 270 268 240 224 201 157 124 95 75 64 59 58 55 56 50 52 51 58 64 82 87 90 92 98 96 96 102 109 110 110 119 99
156 162 241 128 196 184 131 219 216 174 171 209 267 259 214 218 182 169 143 118 95 76 68 65 63 60 63 63 54 61 59 60 57 68 72 83 78 85 99 112 125 135 136 129
210 170 233 217 237 194 193 203 177 199 233 239 255 264 7 61 120 130 133 126 110 101 83 80 75 67 65 65 58 58 62 50 55 52 54 53 59 78 93 102 114 135 113 93
186 218 311 310 21 13 228 209 216 315 13 241 236 253 110 110 117 138 144 147 142 123 100 81 74 73 65 63 44 57 53 53 42 60 65 65 45 37 18 62 93 141 135 126
157 188 201 252 248 147 208 220 211 219 236 243 233 264 208 200 182 168 161 152 138 132 119 110 90 77 74 61 55 39 47 37 26 30 31 50 38 31 11 26 101 302 274 204
180 255 230 256 260 258 259 257 229 227 233 241 262 240 254 214 194 182 158 143 142 133 117 110 103 87 80 72 60 47 39 28 9 32 45 34 19 10 16 360 323 288 269 269
203 246 219 255 259 240 253 252 245 245 248 250 251 259 264 57 123 151 155 148 141 122 112 105 97 92 75 69 57 49 35 16 9 24 28 29 27 19 14 15 3 339 329 329
185 232 196 258 269 261 250 245 245 247 242 232 243 251 123 153 144 142 137 126 119 110 110 105 92 80 85 70 51 31 13 7 24 28 22 23 19 12 10 360 348 336 339 335
229 226 241 260 263 246 250 17 275 223 250 19 39 67 77 111 86 80 80 108 107 106 105 90 81 93 99 91 73 22 8 9 35 35 17 10 7 2 343 330 321 319 326 315
231 240 251 250 239 258 264 14 11 137 8 355 104 104 107 106 86 65 67 81 88 82 74 89 57 29 77 60 19 16 31 28 39 33 8 358 350 326 321 314 312 303 299 291
247 237 238 243 259 263 44 343 336 299 216 2 59 100 122 126 134 90 80 69 74 74 59 63 32 53 52 15 12 12 10 10 26 7 346 330 324 318 313 309 296 280 279 295
333 293 247 237 243 108 338 306 295 161 6 3 37 30 55 79 44 98 92 80 58 52 26 39 20 9 14 337 347 339 333 354 346 341 319 313 309 314 288 282 290 287 289 288
320 315 324 326 308 237 353 347 35 302 44 30 29 37 79 88 71 81 69 65 45 13 355 350 347 336 319 339 345 320 325 337 326 305 308 307 305 297 306 302 292 284 277 283
308 338 322 6 24 11 3 39 13 29 51 32 34 21 26 47 50 40 45 35 8 347 333 325 303 309 325 325 317 300 299 313 301 300 289 293 289 293 301 296 287 289 300 278
13 16 35 236 18 19 28 23 26 23 33 33 33 26 27 19 8 3 7 359 347 328 309 287 296 297 296 291 304 285 288 299 290 287 286 274 267 280 275 298 295 292 270 271
340 334 324 102 33 311 55 23 10 17 18 25 25 21 17 0 349 344 339 333 322 310 306 299 288 289 288 291 284 281 299 305 287 270 266 268 280 278 279 280 274 268 258 255
355 346 357 330 335 282 5 5 8 13 8 1 0 352 355 354 334 325 307 299 298 294 295 298 294 286 280 271 279 285 268 255 257 272 276 256 281 278 283 275 276 282 288 293